Wind_Speed
9 9 11 11 9 10 11 11 11 12 11 12 10 10 9 7 7 8 7 4 4 7 14 5 4 5 4 5 6 9 10 10 10 11 10 11 10 9 10 8 11 13 11
13 10 10 11 11 10 12 16 15 14 12 10 10 9 8 8 8 7 5 5 3 3 5 10 8 6 6 5 7 8 10 9 10 9 9 9 8 7 6 6 6 7 8
10 9 8 8 10 9 12 15 16 14 13 12 10 9 8 7 7 6 5 7 5 3 6 11 15 21 14 10 13 13 14 11 7 5 4 3 3 3 2 2 2 1 2
13 10 7 5 7 8 11 15 16 16 15 14 13 12 9 8 7 6 7 9 12 14 7 7 14 17 21 18 15 9 9 6 5 7 7 6 4 3 2 2 3 2 2
16 12 10 5 6 8 10 15 19 16 17 17 15 14 12 11 8 7 5 5 4 4 5 4 5 2 2 8 15 15 10 6 3 4 4 4 4 3 3 2 1 2 3
16 13 11 6 3 8 12 13 16 20 20 19 17 17 15 13 10 10 9 9 7 4 4 6 10 7 6 1 6 14 7 5 3 0 1 3 4 4 2 1 4 5 5
18 16 12 9 4 8 13 15 15 15 17 16 14 12 10 10 11 10 9 9 9 9 9 11 14 5 5 9 5 3 8 6 6 5 6 1 5 1 3 5 7 3 8
20 16 13 10 5 7 11 13 14 15 16 16 14 11 8 7 8 7 9 9 9 11 13 14 13 13 14 11 6 4 7 8 5 4 5 7 5 6 10 9 6 8 9
21 20 16 14 10 6 8 11 12 14 15 16 15 9 6 6 9 6 6 6 6 6 7 9 11 14 15 14 13 14 12 11 8 3 10 15 12 12 14 17 18 15 15
24 21 19 17 15 12 7 6 11 14 14 14 13 11 5 4 5 4 7 7 6 6 7 7 8 10 10 10 10 12 13 16 12 12 14 23 20 19 19 20 22 23 22
24 23 20 20 19 16 13 11 11 13 14 14 13 11 9 6 6 4 4 6 7 7 7 7 7 8 9 7 6 7 8 12 9 4 5 14 18 15 15 15 19 21 24
25 22 20 19 17 17 16 14 12 12 13 12 13 12 11 11 10 7 5 6 5 4 6 7 7 8 8 8 7 7 7 7 8 4 6 14 12 10 9 11 13 15 16
28 25 21 18 17 16 14 15 14 12 11 12 12 11 10 10 10 10 9 7 7 6 6 6 7 8 8 6 7 7 7 7 8 8 8 11 11 10 8 9 11 12 13
26 22 20 19 16 15 14 13 12 12 12 12 11 11 11 10 10 10 11 10 8 7 6 7 7 7 6 6 7 7 6 6 6 6 6 9 10 10 9 8 8 9 10
25 23 19 17 15 14 13 11 10 10 9 10 10 10 10 10 11 11 12 12 10 8 6 7 7 6 7 6 6 7 7 7 7 7 6 6 7 8 9 10 10 10 9
21 22 20 16 14 13 12 11 10 10 9 9 8 8 8 8 8 8 9 10 9 9 7 5 6 5 5 6 6 7 7 8 8 9 9 9 10 10 11 11 13 13 13
22 18 16 15 14 13 13 12 12 11 10 10 9 8 8 7 6 6 7 7 8 9 8 6 6 4 5 6 6 7 7 8 9 9 10 10 10 11 11 12 13 13 14
18 16 17 16 16 15 14 12 11 11 10 9 9 8 7 6 5 4 4 4 5 5 6 5 5 5 7 6 8 8 9 9 9 9 9 10 10 10 11 12 13 13 14
19 19 18 17 16 16 15 14 12 12 11 10 8 6 4 5 5 5 6 6 6 6 6 7 6 6 6 7 7 8 9 9 9 10 10 10 11 11 11 12 13 14 14
20 19 18 17 17 16 16 15 13 10 8 7 6 6 6 6 6 5 4 4 3 3 4 4 5 5 6 7 8 9 9 10 11 11 11 11 12 12 12 13 13 15 15
17 17 17 17 17 16 14 11 10 9 9 8 9 9 8 7 7 5 4 3 4 4 4 4 5 5 6 8 9 10 12 12 12 12 11 10 13 13 13 15 17 16 16
18 18 18 17 16 13 10 9 7 7 7 7 8 8 8 7 6 5 4 4 5 5 5 6 7 8 8 10 11 13 15 15 15 12 14 15 15 16 17 16 15 17 16
20 19 18 15 12 10 9 8 8 9 9 9 9 8 7 6 6 5 5 6 6 7 8 9 9 9 11 12 15 15 15 16 17 18 20 23 21 20 17 17 14 15 18
19 18 15 11 9 9 10 10 10 10 10 10 8 7 6 6 6 7 7 7 7 8 9 10 12 13 14 14 15 16 18 21 22 21 17 22 20 21 18 15 14 16 16
18 15 11 9 9 10 10 10 9 10 9 9 8 8 7 7 8 8 8 9 9 10 11 13 14 15 15 16 17 19 21 21 24 23 18 19 19 22 23 21 17 20 19
16 13 11 10 10 10 11 9 8 9 9 9 9 9 9 9 9 10 11 12 13 12 13 14 15 15 16 17 17 17 18 20 21 25 19 17 20 21 26 26 16 14 18
Wind_Direction
145 167 172 172 175 163 164 161 160 154 154 147 141 138 140 133 120 114 111 109 85 85 70 81 133 151 144 159 152 135 127 122 114 110 93 91 88 82 79 88 69 70 77
173 165 169 177 184 179 171 162 162 159 160 155 152 141 132 122 113 103 94 94 91 107 89 80 84 125 142 173 173 153 138 132 117 111 93 87 89 90 96 92 86 73 65
165 162 158 171 186 189 177 167 165 167 165 159 152 139 125 119 110 110 101 115 124 73 110 111 103 99 91 129 149 138 111 96 83 97 111 125 107 65 49 87 100 106 87
169 170 150 160 185 186 184 174 171 171 167 159 152 143 138 127 117 105 111 113 127 128 94 95 121 104 88 81 89 99 109 90 105 124 111 102 105 101 86 345 328 306 268
171 170 160 154 197 202 196 188 176 181 171 165 161 154 154 159 161 166 192 174 157 109 121 118 187 199 62 76 80 81 102 110 77 46 40 31 20 15 353 337 277 270 278
172 180 161 158 190 210 200 199 196 182 181 181 179 175 173 173 182 192 201 211 219 192 159 163 154 143 119 223 151 102 77 101 121 226 220 337 332 344 337 322 288 242 253
181 170 168 171 214 221 206 200 199 198 195 191 189 183 181 182 189 206 227 237 232 233 225 215 229 200 168 148 147 148 113 93 120 234 264 231 308 342 254 201 162 271 298
179 173 175 154 169 218 206 196 197 201 196 195 195 190 182 192 207 199 216 221 227 231 234 233 238 237 236 242 225 214 170 151 162 166 243 251 239 253 275 264 270 277 291
188 186 179 162 161 191 200 200 206 205 203 196 195 189 176 193 189 204 219 239 239 228 225 229 237 241 243 244 239 234 221 201 207 182 244 258 259 260 268 276 278 280 276
188 184 184 171 169 175 189 224 224 214 206 205 201 214 205 169 178 185 209 218 231 237 235 232 236 246 246 246 244 242 231 222 222 230 248 265 261 263 269 272 275 278 280
187 190 188 184 178 177 182 201 224 219 219 216 215 216 217 209 201 220 214 213 225 229 234 236 242 250 259 256 251 242 245 231 214 221 260 270 278 287 280 278 276 280 282
190 190 192 189 187 188 188 191 200 213 223 223 222 220 222 216 204 202 208 182 213 225 237 240 243 248 248 259 255 248 249 249 254 242 272 280 304 310 297 294 294 296 295
194 193 194 192 193 193 200 198 192 206 219 225 230 229 226 229 229 228 224 211 220 218 230 237 239 246 254 256 259 259 262 262 263 266 276 290 300 304 300 293 296 300 302
187 185 188 189 191 197 202 205 208 201 206 221 226 232 228 231 233 232 230 223 214 218 230 240 248 248 248 247 257 269 273 278 278 281 276 276 288 297 300 299 295 297 302
183 184 187 187 190 194 199 205 208 216 221 221 224 227 237 234 229 225 228 231 225 207 217 248 253 252 250 254 264 275 283 290 299 303 303 296 295 298 299 299 298 297 297
182 181 183 181 187 190 194 198 204 205 203 206 206 211 212 213 213 218 221 220 224 221 213 236 266 262 261 264 272 282 288 293 299 303 307 306 303 300 298 298 295 298 296
171 168 173 182 185 188 190 191 190 190 191 191 187 187 189 189 196 199 203 208 214 223 230 237 253 260 256 269 275 281 285 290 294 297 300 300 300 299 298 298 301 301 300
160 171 178 184 185 182 180 182 182 175 174 168 163 161 161 163 170 177 188 199 209 218 228 230 239 253 266 273 282 288 294 296 298 298 298 301 300 297 294 292 291 290 293
167 174 176 174 173 173 172 166 163 158 153 149 152 167 194 214 230 236 239 238 237 238 245 254 260 265 271 281 291 295 297 299 302 302 306 306 301 298 295 290 289 289 287
171 169 168 169 168 165 164 163 166 178 193 203 215 227 234 236 237 233 227 223 220 220 226 240 254 269 282 292 296 292 294 300 302 303 303 303 300 300 299 299 296 296 295
166 165 166 162 159 160 162 168 176 184 189 200 209 221 224 210 197 198 199 215 231 240 247 253 259 268 280 285 293 295 297 299 300 300 300 307 302 302 303 301 297 294 294
162 163 162 162 163 167 175 187 199 206 200 192 187 181 180 183 191 204 221 240 256 265 269 269 268 272 276 283 292 297 300 303 305 301 297 294 292 295 296 295 294 293 292
162 162 162 165 169 178 188 191 187 182 179 182 188 190 195 200 216 231 245 251 256 261 267 274 280 282 280 282 284 287 291 292 289 293 296 297 300 298 297 290 290 285 298
167 168 171 177 187 189 189 189 185 186 189 190 195 202 217 230 243 252 257 265 272 276 278 280 283 285 285 284 283 284 286 287 287 291 298 298 304 302 309 293 278 283 286
172 176 181 185 189 190 194 198 193 199 202 202 206 222 240 250 258 260 267 272 274 278 282 285 286 285 283 283 284 287 287 289 291 294 296 300 301 299 300 294 285 282 287
182 187 194 201 202 199 201 207 198 203 211 218 225 239 252 256 261 267 270 273 277 281 283 284 285 285 288 289 291 288 293 289 290 292 295 289 287 295 299 299 296 296 295
Height
1563 1566 1570 1573 1575 1579 1581 1584 1587 1590 1592 1595 1597 1598 1600 1600 1602 1603 1604 1605 1606 1607 1608 1607 1607 1608 1609 1610 1611 1611 1612 1614 1615 1616 1617 1618 1619 1620 1620 1621 1621 1621 1621
1562 1566 1570 1573 1575 1578 1580 1584 1587 1590 1593 1595 1598 1599 1601 1602 1603 1604 1606 1607 1608 1609 1609 1609 1609 1609 1609 1610 1611 1611 1613 1614 1615 1616 1618 1619 1620 1621 1621 1623 1622 1623 1624
1563 1566 1570 1573 1575 1578 1580 1583 1587 1590 1593 1596 1598 1600 1602 1603 1604 1605 1607 1609 1609 1609 1610 1610 1611 1610 1611 1607 1610 1610 1612 1613 1616 1617 1618 1618 1620 1621 1623 1623 1623 1624 1624
1561 1565 1569 1573 1576 1578 1581 1583 1587 1590 1593 1596 1598 1600 1603 1605 1606 1607 1609 1609 1610 1609 1611 1612 1613 1612 1613 1613 1611 1611 1614 1616 1617 1618 1620 1620 1621 1622 1622 1622 1623 1623 1624
1560 1564 1568 1571 1575 1578 1581 1583 1586 1590 1593 1595 1598 1600 1602 1604 1606 1608 1610 1610 1611 1611 1611 1613 1615 1615 1615 1616 1617 1617 1618 1618 1619 1621 1620 1620 1621 1622 1622 1622 1622 1622 1623
1560 1563 1566 1570 1574 1577 1580 1584 1586 1588 1591 1593 1596 1598 1600 1602 1605 1606 1608 1610 1611 1612 1613 1614 1614 1615 1616 1616 1617 1620 1620 1620 1620 1621 1621 1621 1621 1621 1621 1622 1622 1622 1623
1559 1561 1564 1568 1573 1576 1579 1581 1584 1587 1590 1593 1596 1598 1600 1602 1603 1605 1606 1608 1610 1611 1612 1613 1614 1615 1615 1617 1619 1619 1621 1621 1620 1619 1619 1620 1622 1622 1622 1622 1621 1622 1623
1557 1560 1564 1566 1571 1574 1577 1580 1583 1586 1589 1591 1594 1597 1599 1602 1602 1602 1604 1606 1608 1610 1611 1611 1612 1613 1616 1618 1618 1619 1620 1620 1620 1619 1619 1620 1620 1620 1621 1620 1620 1621 1622
1556 1560 1562 1565 1569 1573 1576 1579 1582 1585 1587 1590 1592 1595 1596 1598 1600 1603 1603 1605 1606 1607 1608 1609 1609 1610 1612 1614 1615 1618 1618 1619 1619 1618 1617 1618 1618 1618 1619 1618 1618 1619 1619
1555 1558 1560 1564 1567 1571 1574 1577 1580 1583 1586 1588 1591 1593 1594 1595 1597 1601 1602 1603 1605 1606 1607 1607 1608 1608 1610 1611 1612 1613 1614 1617 1616 1615 1614 1614 1616 1616 1616 1616 1615 1615 1615
1552 1555 1559 1562 1564 1568 1571 1575 1578 1581 1584 1587 1589 1591 1593 1594 1596 1598 1600 1601 1604 1604 1605 1606 1606 1607 1608 1609 1610 1611 1612 1613 1612 1612 1612 1611 1611 1612 1613 1612 1611 1609 1609
1549 1554 1558 1561 1564 1567 1570 1572 1575 1578 1581 1584 1587 1589 1591 1593 1594 1596 1598 1599 1602 1603 1604 1605 1605 1606 1607 1608 1609 1609 1610 1609 1610 1610 1611 1610 1610 1610 1610 1608 1607 1607 1607
1546 1550 1556 1559 1562 1565 1569 1571 1573 1576 1579 1582 1584 1587 1589 1591 1593 1593 1595 1597 1600 1601 1602 1604 1604 1605 1606 1607 1607 1607 1607 1607 1607 1608 1609 1608 1608 1607 1606 1606 1605 1605 1605
1545 1549 1554 1557 1560 1563 1568 1571 1573 1574 1576 1579 1581 1585 1587 1589 1590 1591 1593 1594 1596 1599 1600 1601 1603 1603 1604 1605 1605 1605 1606 1606 1606 1606 1607 1607 1606 1605 1604 1604 1604 1604 1603
1542 1546 1552 1555 1558 1562 1566 1569 1571 1573 1575 1578 1580 1582 1584 1586 1588 1590 1591 1592 1593 1595 1598 1599 1601 1602 1602 1603 1603 1604 1604 1604 1604 1604 1605 1605 1604 1604 1603 1603 1602 1603 1602
1540 1545 1549 1553 1557 1561 1564 1567 1569 1571 1573 1575 1578 1580 1582 1585 1587 1588 1590 1591 1591 1593 1595 1597 1598 1600 1600 1601 1601 1602 1601 1602 1601 1601 1602 1602 1602 1602 1601 1601 1600 1600 1600
1539 1543 1548 1553 1557 1559 1562 1565 1568 1569 1572 1574 1576 1579 1581 1583 1585 1586 1588 1589 1590 1591 1593 1594 1596 1597 1598 1599 1600 1600 1599 1599 1599 1599 1599 1599 1599 1599 1598 1598 1598 1598 1597
1538 1544 1548 1552 1554 1558 1561 1564 1567 1569 1572 1574 1576 1579 1581 1583 1584 1586 1587 1589 1590 1590 1592 1593 1594 1595 1596 1597 1597 1598 1598 1597 1597 1596 1596 1597 1597 1597 1596 1595 1594 1594 1594
1539 1544 1547 1550 1554 1557 1560 1563 1567 1569 1572 1574 1577 1579 1581 1583 1584 1585 1586 1587 1589 1589 1590 1591 1592 1593 1594 1594 1595 1595 1595 1595 1594 1594 1593 1593 1593 1593 1593 1592 1591 1591 1590
1539 1543 1546 1550 1554 1557 1561 1564 1566 1569 1571 1574 1576 1578 1579 1581 1582 1583 1585 1586 1587 1588 1589 1590 1590 1591 1592 1593 1593 1593 1593 1592 1592 1591 1591 1590 1590 1589 1589 1589 1588 1587 1587
1540 1544 1547 1551 1554 1558 1561 1564 1567 1569 1571 1573 1574 1576 1578 1579 1580 1582 1583 1585 1586 1586 1587 1588 1589 1589 1590 1590 1590 1590 1589 1589 1589 1588 1587 1587 1587 1586 1586 1586 1584 1583 1582
1541 1544 1548 1551 1554 1558 1561 1563 1566 1568 1570 1572 1574 1575 1577 1579 1580 1581 1582 1584 1585 1585 1586 1587 1587 1587 1588 1588 1587 1587 1587 1586 1586 1586 1584 1584 1584 1583 1582 1581 1580 1578 1578
1541 1545 1548 1552 1555 1558 1560 1562 1564 1567 1569 1571 1573 1575 1576 1578 1579 1581 1581 1582 1583 1583 1584 1585 1585 1586 1585 1585 1585 1584 1584 1583 1583 1582 1581 1579 1579 1578 1578 1577 1576 1576 1575
1542 1545 1549 1552 1555 1557 1559 1561 1563 1566 1568 1570 1572 1574 1576 1577 1578 1578 1579 1580 1581 1581 1582 1582 1582 1582 1582 1582 1582 1581 1580 1579 1579 1578 1578 1574 1575 1573 1573 1573 1572 1572 1571
1542 1546 1549 1551 1554 1556 1558 1559 1562 1565 1567 1569 1571 1573 1574 1575 1575 1576 1577 1577 1578 1578 1579 1579 1579 1578 1578 1578 1578 1577 1576 1575 1573 1572 1574 1571 1571 1569 1568 1567 1567 1567 1566
1543 1546 1548 1550 1553 1555 1557 1559 1561 1564 1567 1568 1569 1570 1571 1572 1572 1573 1573 1574 1574 1575 1575 1575 1575 1574 1575 1574 1574 1573 1572 1570 1570 1568 1569 1570 1567 1567 1563 1561 1561 1562 1562